Wind_Speed
6 5 5 4 4 3 1 1 1 3 4 5 7 8 7 8 9 10 11 12 13 13 14 15 16 17 18 18 19 19 20 20 20 20 20 20 20 20 20 20 20 21 21 21 21 20 20 19 18
7 6 6 5 4 3 2 1 2 3 5 6 8 9 9 10 11 12 13 14 14 14 15 17 18 18 19 20 21 21 22 22 23 23 23 23 23 22 22 23 22 22 22 22 22 22 21 20 19
8 7 6 6 6 4 4 3 4 5 7 8 9 10 11 11 12 13 14 15 15 16 17 18 19 19 20 21 22 22 23 23 24 25 24 25 25 25 24 25 25 25 24 24 23 24 23 22 21
9 8 7 7 7 6 5 4 5 7 8 10 11 11 11 13 13 14 15 16 16 17 18 19 20 20 20 21 21 22 22 23 24 25 25 26 26 27 27 27 28 27 26 26 25 24 24 23 23
10 10 9 9 8 7 7 7 8 9 10 12 12 12 12 14 14 14 15 16 17 17 18 19 19 19 20 20 20 20 21 21 22 23 24 25 25 27 27 28 28 29 29 29 28 26 25 25 24
13 11 10 10 11 8 7 8 10 12 12 13 14 13 13 14 14 14 15 16 17 18 18 17 18 18 18 18 18 19 19 20 20 21 22 23 24 26 27 27 27 29 29 29 29 29 27 26 25
15 13 12 12 12 10 9 9 10 12 12 13 13 13 13 14 14 14 16 16 16 17 17 16 16 16 17 17 17 17 18 18 19 20 21 22 23 24 25 27 27 28 30 30 29 29 29 27 27
17 15 15 14 14 12 10 10 12 13 12 13 13 13 13 13 14 14 15 15 16 16 15 15 14 14 14 15 16 16 17 17 18 18 19 20 20 22 23 24 26 27 29 29 29 29 30 29 27
19 17 15 14 13 11 10 11 11 12 13 13 13 13 13 13 14 14 14 15 14 14 13 13 13 14 14 14 15 16 16 17 17 18 18 19 19 20 21 22 24 26 27 28 29 30 30 30 29
20 18 17 13 13 12 11 12 12 12 13 13 12 12 13 13 13 14 14 13 12 12 12 12 13 14 14 15 15 16 17 17 17 17 18 18 19 19 20 21 22 23 24 26 27 28 29 29 29
22 21 19 16 14 13 13 13 13 13 13 13 13 12 12 12 13 14 14 12 11 11 11 12 12 13 14 15 16 16 17 18 18 18 18 18 19 19 19 19 20 21 22 23 25 26 27 27 29
22 22 19 16 14 13 12 12 12 13 14 14 13 12 13 13 13 13 12 11 10 10 10 11 12 13 14 15 16 17 18 18 19 19 19 18 18 18 18 18 18 19 20 21 23 24 25 26 27
20 19 18 15 13 14 13 12 12 12 12 13 13 13 13 13 13 12 11 10 10 9 10 11 12 13 14 16 17 17 18 19 19 20 19 19 18 17 17 17 17 18 18 20 21 22 23 24 25
19 16 14 13 13 13 13 13 12 12 12 13 13 13 13 12 12 11 10 9 9 9 10 11 12 13 15 16 17 18 19 19 20 20 20 19 17 16 16 16 16 17 17 18 20 21 22 23 24
17 14 11 11 12 12 13 13 13 12 13 14 14 13 13 12 12 10 9 9 8 9 10 11 12 14 15 17 18 19 19 20 20 21 20 19 17 16 15 15 15 14 15 15 17 19 20 22 23
14 12 12 11 11 11 12 13 13 12 13 14 14 14 12 12 12 10 9 9 8 9 10 11 12 14 16 17 18 19 20 20 21 21 20 19 18 16 15 14 14 13 12 13 14 15 17 19 21
14 12 11 10 9 10 11 13 13 12 13 14 15 15 13 12 11 10 9 9 8 9 9 11 12 14 16 17 18 19 20 21 21 21 20 19 17 16 15 14 12 11 10 11 13 14 16 17 19
12 10 11 11 10 9 11 13 13 13 12 14 14 14 13 12 11 10 9 8 8 9 9 11 12 14 16 17 18 19 20 20 21 21 20 19 17 15 14 13 11 10 8 8 10 12 15 16 17
13 11 10 11 11 10 11 12 13 14 13 13 14 13 13 12 11 10 9 9 8 9 9 11 12 14 16 17 18 19 20 20 21 21 20 19 17 15 13 12 10 9 7 5 6 9 12 13 14
10 10 13 13 10 9 9 11 12 14 14 13 13 13 12 12 11 10 9 9 8 8 9 10 12 14 16 17 18 19 19 20 20 20 19 18 17 15 13 11 10 8 6 4 4 6 8 10 12
12 12 12 10 7 8 10 10 12 14 14 14 13 13 13 12 11 10 9 9 8 8 9 10 12 14 16 17 18 18 19 19 19 19 19 17 16 15 13 11 10 9 6 4 2 3 6 7 9
13 12 9 8 8 8 9 11 12 14 14 14 13 13 13 12 12 10 9 9 9 9 9 10 12 14 16 17 18 18 18 18 18 18 18 17 15 14 13 12 11 9 7 4 2 1 3 5 7
11 8 7 7 8 8 9 11 12 16 16 14 14 12 12 12 11 11 10 9 9 9 9 10 12 14 16 17 18 17 17 17 17 17 17 16 15 13 12 11 10 9 7 5 3 1 1 3 5
8 6 6 6 6 7 9 11 11 16 17 16 16 14 12 11 11 11 10 10 10 9 9 10 11 13 15 16 17 16 16 16 16 16 16 16 15 13 11 10 9 8 7 6 4 2 1 1 4
7 6 4 4 4 5 9 14 15 18 17 16 16 15 13 12 12 11 11 11 10 9 9 10 11 13 14 15 16 16 15 15 15 15 16 15 15 13 12 10 9 8 7 5 4 3 3 2 2
7 6 6 7 6 8 10 12 17 21 18 16 15 15 14 12 12 12 11 11 11 10 10 10 11 12 13 14 15 15 15 15 15 15 14 14 14 13 12 11 10 9 7 6 5 4 3 2 2
7 7 9 10 9 9 8 11 18 22 18 16 15 15 15 14 13 13 12 12 11 11 10 10 11 11 13 13 14 14 14 15 15 15 14 14 14 13 12 11 10 9 8 7 6 5 4 3 2
9 10 11 11 11 11 9 10 15 23 22 20 18 16 15 15 14 13 13 13 12 12 11 11 11 11 12 13 13 13 14 14 14 14 14 14 14 13 12 11 10 9 8 8 7 6 5 4 3
10 11 12 12 13 13 14 14 19 24 23 21 19 17 16 15 15 15 14 14 13 13 12 12 11 11 12 12 12 13 13 14 14 14 14 14 14 14 13 11 11 10 9 8 7 6 5 5 4
12 13 14 16 15 16 18 16 20 24 24 22 19 18 17 16 15 15 15 15 15 14 13 13 12 12 12 12 12 12 13 13 13 14 14 14 14 14 13 12 11 10 9 8 8 7 6 5 4
Wind_Direction
302 317 329 315 297 309 320 20 262 272 278 283 282 284 287 289 292 294 295 296 298 298 297 297 296 294 292 289 287 285 283 280 277 273 271 266 263 261 258 254 252 250 249 248 247 246 247 247 247
292 310 313 305 297 293 279 287 284 296 294 286 284 288 292 291 293 295 296 298 299 301 300 298 298 296 293 289 286 284 282 279 278 276 275 270 266 262 257 254 252 251 251 249 248 246 246 246 246
276 288 292 296 287 257 253 268 288 297 296 292 290 293 295 295 297 297 298 299 301 303 302 302 301 298 296 293 290 287 283 279 278 276 273 272 268 263 257 255 253 252 251 250 249 248 246 245 245
267 271 275 280 273 262 257 275 293 299 300 297 296 296 297 298 299 300 301 303 304 305 305 305 304 303 302 299 297 293 288 284 280 277 275 274 270 267 262 257 253 253 252 250 251 249 246 245 245
256 258 265 265 261 257 267 278 291 298 300 299 297 300 303 302 303 304 304 306 307 308 308 308 308 308 307 306 303 299 294 290 284 280 277 274 271 268 265 262 255 254 254 254 252 251 248 244 244
249 249 256 263 263 253 270 283 292 300 305 301 299 303 303 303 304 305 307 309 310 310 311 312 314 314 314 312 309 306 303 299 293 288 284 280 275 270 268 263 260 255 255 254 252 251 249 245 244
245 249 251 261 267 271 274 284 295 301 304 301 297 301 305 303 304 305 308 309 311 313 315 318 319 320 320 319 317 314 310 306 301 295 290 285 280 275 271 267 265 260 257 254 251 250 247 244 243
242 246 252 257 265 269 273 289 295 296 300 301 300 303 308 307 307 308 311 312 314 316 320 324 327 328 329 328 327 325 321 317 310 303 297 290 285 281 276 271 266 262 260 256 252 249 247 243 242
239 242 247 252 258 262 275 286 292 296 296 296 300 304 307 309 310 312 314 315 318 321 325 329 335 337 337 337 335 331 328 324 319 313 305 296 290 285 280 275 269 265 261 257 252 247 246 244 241
236 238 242 246 257 265 278 285 291 293 296 299 299 299 304 308 310 313 316 317 320 325 330 335 339 340 341 341 339 336 333 329 326 320 314 305 296 289 283 277 272 268 263 257 252 246 243 243 240
237 239 243 247 258 267 276 281 287 289 294 297 299 299 302 305 309 314 316 318 324 330 335 339 342 343 343 342 341 339 336 334 331 327 321 313 304 295 289 281 275 270 264 257 251 246 241 240 237
239 241 245 248 254 264 276 280 287 288 297 301 304 306 302 304 309 312 317 321 327 333 338 341 343 344 345 344 343 342 340 337 334 331 326 319 311 302 293 285 279 272 265 256 250 246 242 240 237
237 236 244 251 258 269 275 278 285 288 296 303 306 309 307 306 309 312 318 321 326 331 336 340 342 345 346 345 344 342 341 339 337 334 331 325 318 309 299 290 281 273 267 258 250 245 241 237 233
235 236 241 250 259 268 275 279 282 287 296 302 306 308 307 308 308 311 314 317 321 327 333 338 340 343 344 344 342 342 341 340 339 337 334 330 325 317 306 297 287 278 271 260 249 243 238 232 229
232 241 247 260 263 269 274 279 282 290 299 303 305 307 305 308 308 306 310 311 316 323 331 336 339 341 341 341 341 342 342 341 340 339 336 333 329 324 315 306 296 285 273 260 248 239 235 230 227
234 244 253 257 262 268 273 281 283 295 302 304 305 306 306 308 305 304 305 306 311 320 329 334 337 339 339 340 341 341 342 342 342 341 339 336 332 328 323 315 306 292 276 259 246 236 230 227 227
226 235 250 258 264 270 278 285 289 296 303 306 306 305 305 302 298 297 299 302 308 317 325 331 334 337 339 340 340 341 342 343 343 343 341 339 335 330 326 322 316 303 284 263 244 234 228 225 225
215 225 239 261 270 282 290 293 296 295 301 309 309 306 303 300 295 290 293 297 303 312 320 328 332 336 339 339 340 341 342 343 344 344 343 342 339 335 331 328 324 318 302 273 246 234 228 226 222
210 218 238 256 267 283 294 298 300 304 306 310 309 305 300 298 294 291 290 293 298 307 316 325 331 336 338 339 340 341 342 344 346 346 346 346 345 342 339 336 333 325 317 288 251 233 226 224 220
214 220 238 253 269 288 298 304 307 310 313 311 309 306 298 295 290 288 285 287 292 302 312 323 331 335 338 340 341 341 343 344 346 348 348 349 350 349 347 343 342 339 335 311 264 230 220 220 219
219 230 238 255 284 296 304 311 315 314 314 312 310 305 298 291 285 281 280 282 287 298 310 321 329 336 339 341 342 342 343 345 347 349 351 352 353 355 355 353 353 352 349 342 309 232 216 210 212
217 231 251 275 296 309 315 323 323 313 309 306 305 301 295 290 283 278 277 278 283 293 306 319 327 334 339 341 342 342 344 346 348 351 352 354 356 358 359 1 2 4 5 3 357 233 214 212 214
226 241 263 285 300 310 319 321 314 309 308 307 305 300 291 285 279 277 277 275 278 289 303 316 325 332 338 341 343 343 345 347 349 351 354 356 357 358 1 6 8 11 16 19 22 38 202 220 215
235 252 270 293 314 326 315 312 309 296 306 310 306 301 291 282 275 273 274 273 276 285 299 312 322 330 336 341 344 345 346 347 349 352 355 358 0 1 3 6 9 12 21 26 29 34 25 256 228
237 250 268 291 311 319 313 315 303 297 305 305 302 298 291 282 275 272 271 270 273 281 293 306 318 328 335 341 345 347 348 349 349 351 354 358 2 3 4 5 8 13 17 21 22 16 8 328 262
241 249 261 275 289 307 321 316 302 307 306 303 299 294 289 282 274 271 268 268 270 277 288 301 313 324 333 339 344 347 350 350 351 351 354 358 2 4 5 7 7 8 10 10 10 6 359 342 292
256 255 264 277 288 294 297 297 303 302 305 305 300 293 288 283 275 270 266 266 269 275 283 295 308 319 329 336 341 345 348 350 353 354 355 357 360 2 3 5 6 7 7 5 3 359 348 339 314
270 276 278 282 286 283 281 289 283 292 305 308 301 293 287 282 276 270 267 265 266 272 279 289 300 313 324 332 337 341 344 348 352 355 356 357 359 0 2 2 3 5 6 5 1 358 352 344 327
281 279 282 285 288 288 283 279 283 293 300 301 297 292 288 282 276 271 267 266 266 269 275 283 293 305 317 326 332 337 341 344 349 353 355 356 357 358 359 359 359 359 358 356 356 356 352 345 339
292 289 287 286 285 281 284 290 290 295 299 297 293 290 287 282 275 270 267 265 264 265 271 277 286 296 307 318 325 332 337 341 345 349 351 353 356 357 359 359 357 355 353 350 350 349 348 344 334
Height
5872 5872 5872 5872 5872 5872 5870 5871 5872 5872 5873 5874 5873 5873 5873 5874 5875 5876 5873 5871 5871 5871 5870 5869 5868 5867 5866 5865 5864 5863 5862 5862 5861 5860 5860 5860 5860 5860 5860 5860 5861 5861 5862 5863 5863 5864 5865 5866 5866
5872 5872 5873 5872 5871 5871 5871 5870 5871 5872 5872 5872 5872 5872 5872 5872 5872 5871 5870 5869 5869 5869 5868 5866 5865 5864 5863 5862 5860 5859 5858 5858 5857 5856 5856 5855 5856 5856 5856 5856 5857 5857 5858 5859 5860 5861 5862 5863 5864
5871 5872 5872 5872 5871 5870 5870 5870 5871 5871 5871 5871 5871 5871 5871 5871 5870 5869 5868 5867 5866 5866 5865 5863 5862 5860 5859 5858 5856 5855 5854 5853 5852 5851 5851 5850 5850 5850 5851 5852 5852 5853 5854 5855 5856 5857 5858 5859 5860
5870 5871 5872 5871 5870 5869 5869 5870 5870 5871 5871 5870 5870 5870 5869 5869 5868 5867 5866 5865 5864 5863 5862 5860 5858 5857 5855 5854 5852 5851 5849 5848 5847 5846 5846 5845 5845 5845 5846 5846 5847 5848 5849 5850 5852 5853 5854 5856 5857
5869 5870 5870 5869 5869 5868 5868 5869 5869 5869 5869 5868 5868 5868 5867 5867 5866 5865 5864 5862 5861 5860 5859 5857 5855 5853 5851 5850 5848 5846 5845 5843 5842 5841 5840 5840 5840 5840 5840 5841 5842 5843 5844 5845 5847 5849 5850 5852 5853
5868 5868 5868 5867 5867 5866 5867 5868 5868 5868 5868 5867 5866 5866 5866 5865 5864 5863 5861 5860 5859 5857 5856 5854 5852 5850 5848 5846 5844 5843 5841 5839 5838 5837 5835 5835 5834 5834 5834 5835 5836 5837 5838 5840 5841 5844 5846 5847 5849
5865 5866 5865 5865 5864 5864 5866 5866 5866 5866 5866 5865 5864 5864 5863 5862 5862 5861 5860 5858 5857 5855 5853 5852 5850 5848 5846 5843 5841 5840 5838 5836 5834 5832 5831 5830 5829 5828 5828 5829 5830 5831 5832 5834 5835 5838 5840 5843 5845
5862 5864 5863 5863 5863 5863 5864 5864 5865 5864 5864 5864 5863 5862 5862 5861 5860 5859 5857 5856 5854 5852 5851 5849 5847 5845 5844 5841 5839 5837 5835 5832 5830 5828 5827 5825 5824 5823 5823 5823 5824 5824 5826 5827 5830 5832 5835 5837 5840
5858 5861 5860 5860 5860 5861 5862 5863 5863 5863 5862 5862 5861 5861 5860 5859 5858 5857 5856 5854 5852 5850 5849 5847 5845 5843 5841 5839 5837 5835 5832 5830 5827 5825 5823 5821 5820 5819 5818 5818 5818 5818 5819 5821 5823 5826 5829 5831 5834
5854 5856 5857 5857 5858 5859 5860 5861 5861 5861 5861 5860 5860 5859 5858 5857 5856 5855 5854 5852 5851 5849 5847 5846 5844 5842 5840 5837 5835 5833 5830 5827 5825 5822 5819 5817 5815 5814 5813 5813 5813 5813 5813 5814 5816 5819 5822 5826 5829
5850 5853 5854 5854 5856 5858 5858 5859 5859 5859 5859 5859 5858 5857 5857 5856 5855 5853 5852 5850 5849 5848 5846 5844 5843 5841 5839 5836 5834 5831 5828 5825 5822 5819 5816 5814 5811 5810 5809 5808 5808 5807 5808 5809 5810 5813 5816 5820 5823
5847 5850 5852 5852 5854 5856 5857 5857 5858 5857 5857 5857 5856 5856 5855 5854 5853 5852 5850 5849 5848 5847 5845 5844 5842 5840 5837 5835 5832 5830 5827 5823 5820 5817 5813 5810 5808 5806 5804 5803 5803 5802 5803 5803 5805 5807 5811 5814 5818
5844 5846 5849 5849 5852 5854 5855 5856 5856 5856 5856 5855 5855 5854 5853 5852 5851 5850 5849 5848 5847 5846 5844 5843 5841 5839 5836 5834 5831 5828 5825 5822 5818 5814 5811 5808 5805 5802 5800 5799 5798 5798 5798 5799 5800 5802 5805 5809 5813
5840 5842 5846 5848 5850 5852 5853 5854 5854 5854 5854 5854 5853 5852 5851 5851 5850 5849 5848 5847 5846 5845 5844 5842 5840 5838 5836 5833 5830 5827 5824 5820 5816 5812 5808 5805 5802 5799 5796 5795 5794 5793 5793 5794 5795 5798 5800 5803 5808
5837 5840 5844 5846 5849 5850 5852 5852 5852 5853 5852 5852 5851 5850 5849 5848 5848 5847 5847 5846 5845 5844 5843 5841 5839 5837 5835 5832 5829 5826 5822 5818 5815 5811 5806 5803 5799 5796 5793 5791 5790 5789 5789 5789 5791 5793 5796 5799 5803
5836 5840 5843 5845 5847 5849 5851 5850 5850 5850 5850 5850 5849 5849 5848 5847 5846 5846 5845 5845 5844 5843 5842 5840 5838 5836 5834 5831 5828 5824 5821 5817 5813 5809 5805 5801 5797 5794 5791 5789 5787 5785 5785 5785 5787 5789 5792 5795 5799
5837 5840 5842 5843 5844 5847 5849 5848 5848 5849 5848 5848 5848 5847 5846 5846 5845 5845 5844 5843 5843 5842 5841 5839 5838 5835 5833 5830 5827 5823 5820 5816 5812 5807 5803 5799 5795 5792 5789 5787 5785 5783 5782 5782 5784 5786 5788 5792 5795
5836 5839 5841 5842 5843 5846 5847 5847 5847 5847 5847 5846 5846 5845 5844 5844 5843 5843 5843 5842 5842 5841 5840 5838 5837 5834 5832 5829 5826 5823 5819 5815 5811 5806 5802 5798 5794 5791 5788 5785 5783 5781 5780 5780 5781 5783 5785 5788 5792
5834 5837 5840 5842 5843 5844 5845 5845 5845 5845 5845 5845 5844 5843 5842 5842 5841 5841 5841 5841 5840 5840 5839 5837 5836 5834 5831 5828 5825 5822 5818 5814 5810 5806 5801 5797 5793 5790 5787 5784 5782 5780 5779 5779 5779 5781 5783 5786 5789
5833 5837 5839 5840 5841 5843 5844 5844 5844 5843 5843 5843 5843 5842 5841 5840 5840 5840 5840 5840 5839 5839 5838 5836 5835 5833 5830 5827 5824 5821 5817 5813 5809 5805 5801 5797 5793 5789 5786 5784 5782 5780 5778 5778 5778 5779 5781 5784 5787
5834 5836 5838 5839 5840 5842 5843 5844 5843 5842 5842 5841 5841 5840 5839 5838 5838 5838 5838 5838 5838 5837 5836 5835 5834 5832 5829 5826 5823 5820 5817 5813 5809 5805 5801 5797 5793 5789 5786 5784 5782 5780 5779 5778 5778 5779 5781 5783 5785
5834 5836 5838 5839 5841 5842 5843 5843 5842 5840 5840 5840 5839 5838 5837 5836 5836 5836 5836 5836 5836 5836 5835 5834 5833 5831 5828 5825 5822 5819 5816 5812 5809 5805 5801 5797 5794 5790 5787 5784 5782 5781 5779 5779 5779 5779 5780 5782 5784
5834 5837 5839 5840 5841 5842 5842 5842 5843 5839 5838 5837 5837 5836 5835 5835 5834 5834 5834 5835 5835 5834 5834 5833 5832 5830 5827 5824 5821 5818 5815 5812 5809 5805 5802 5798 5794 5791 5788 5786 5784 5782 5780 5780 5780 5780 5781 5782 5783
5835 5838 5839 5839 5840 5841 5841 5842 5841 5838 5836 5836 5835 5834 5833 5833 5833 5833 5833 5833 5833 5833 5832 5831 5830 5829 5826 5824 5821 5818 5815 5812 5809 5806 5802 5798 5795 5792 5789 5787 5785 5783 5782 5781 5781 5781 5781 5782 5783
5836 5838 5838 5839 5839 5840 5840 5840 5839 5836 5835 5834 5833 5832 5831 5831 5831 5831 5831 5831 5831 5831 5831 5830 5829 5827 5825 5823 5820 5817 5814 5812 5809 5806 5803 5799 5796 5793 5790 5788 5786 5784 5783 5782 5782 5782 5782 5782 5783
5835 5837 5838 5838 5838 5839 5839 5839 5836 5833 5832 5832 5831 5829 5829 5829 5829 5829 5829 5829 5830 5829 5829 5828 5828 5826 5824 5822 5820 5817 5814 5812 5809 5806 5803 5800 5797 5794 5791 5789 5787 5785 5784 5783 5782 5782 5782 5782 5782
5834 5835 5836 5837 5837 5838 5839 5838 5834 5830 5829 5829 5828 5827 5826 5826 5826 5826 5827 5827 5827 5827 5827 5827 5826 5825 5823 5821 5819 5816 5814 5811 5809 5806 5803 5800 5798 5795 5792 5790 5788 5786 5785 5784 5783 5782 5782 5781 5782
5834 5834 5834 5834 5834 5835 5836 5836 5833 5828 5827 5826 5825 5824 5823 5823 5823 5824 5824 5825 5825 5825 5825 5825 5824 5823 5822 5820 5818 5816 5814 5811 5809 5806 5803 5801 5798 5795 5793 5791 5789 5787 5785 5784 5783 5782 5781 5781 5781
5832 5832 5832 5832 5832 5832 5832 5834 5829 5826 5824 5823 5822 5821 5820 5820 5821 5821 5821 5822 5822 5823 5823 5823 5822 5821 5820 5819 5817 5815 5813 5811 5808 5806 5804 5801 5798 5796 5793 5791 5789 5787 5785 5784 5783 5782 5781 5780 5780
5829 5829 5829 5829 5829 5828 5828 5831 5825 5822 5820 5819 5818 5817 5817 5817 5817 5817 5818 5818 5819 5820 5820 5820 5820 5819 5819 5817 5816 5814 5812 5810 5808 5806 5803 5801 5799 5796 5793 5791 5789 5787 5785 5784 5782 5781 5781 5780 5779